Vorticity
10 12 14 16 16 15 13 11 10 9 7 6 7 9 12 15 21 24 24 21 17 16 15 16 15 15 15 15 18 22 27 30 30 27 22 16 11 8 7 9 17 24 30 34 31 26 20 15 15 19 24 28 26 24 22 22 23 25 27 31 30 24 17 12 10 9 9 9 9
13 14 16 16 15 14 13 12 12 11 10 10 11 12 14 16 21 24 23 21 16 14 13 13 14 14 13 11 13 17 22 25 29 30 28 23 18 13 11 11 13 16 20 25 25 22 18 15 19 25 30 30 25 22 21 22 23 25 27 29 24 17 12 10 9 9 9 9 9
15 16 16 16 15 14 13 13 12 11 11 12 12 13 14 16 19 21 21 18 14 12 11 12 13 13 13 10 9 11 13 15 21 25 27 27 22 18 14 12 11 10 10 12 12 13 15 19 28 33 33 27 22 20 21 22 23 24 25 24 18 13 9 9 8 9 9 9 9
16 16 16 15 14 13 12 11 11 11 11 13 14 14 14 14 16 17 17 14 12 11 11 11 12 12 12 11 7 5 5 7 12 17 21 24 23 21 19 16 13 9 6 5 8 14 22 31 36 33 27 21 20 21 22 21 22 23 23 21 13 9 8 8 8 7 6 6 8
15 15 13 12 12 11 11 10 10 11 14 16 15 14 13 13 13 13 13 12 12 12 12 12 11 11 11 10 8 6 5 7 10 13 15 17 20 23 26 26 23 18 13 11 17 26 34 36 31 25 20 19 21 22 21 20 24 23 19 16 9 7 7 7 5 3 3 4 8
13 12 11 10 10 10 9 9 11 14 17 18 16 15 13 13 11 11 11 11 12 13 14 13 11 11 11 11 10 10 11 12 13 14 14 13 16 21 27 32 30 28 26 28 33 35 33 27 22 19 20 22 20 19 21 26 25 22 17 10 7 6 5 1 0 4 8 9 12
10 9 9 8 8 8 8 9 12 15 16 16 15 14 14 15 13 13 13 13 14 15 15 15 12 11 12 13 13 14 14 15 14 14 15 16 18 21 24 27 28 30 32 34 32 29 25 20 19 20 20 19 16 19 23 27 25 20 13 5 4 2 -0 -2 6 14 18 15 14
9 9 8 7 7 7 8 9 11 12 12 13 13 14 16 18 16 16 17 18 18 18 17 17 15 14 13 14 15 15 15 14 13 12 13 15 19 21 22 22 24 26 27 27 25 23 21 20 20 19 18 15 15 19 22 22 20 13 6 1 -0 -2 -1 7 16 20 19 13 11
9 9 8 7 7 7 7 8 9 9 10 11 14 17 19 20 19 20 21 23 22 21 19 18 17 16 15 15 15 15 15 14 14 13 13 14 17 19 20 19 21 22 22 22 22 21 20 18 17 17 17 16 16 17 18 16 13 9 4 -1 -3 -3 1 12 14 13 10 7 7
9 9 9 8 7 7 7 7 7 8 11 14 18 21 22 20 19 20 23 25 23 21 19 18 17 16 16 15 15 14 14 14 14 15 15 15 17 18 19 19 21 22 23 22 21 19 18 17 19 19 17 14 16 15 13 11 12 12 9 3 -5 -5 1 9 7 5 5 7 8
9 9 10 9 8 7 6 6 7 9 12 17 21 22 21 19 18 19 21 22 21 20 18 17 16 15 14 13 13 12 12 12 13 15 16 17 19 21 22 24 24 24 23 20 18 18 20 24 22 18 14 15 14 10 7 9 12 13 12 7 -0 -1 2 5 3 4 7 12 13
11 11 11 11 9 8 6 6 7 9 13 17 20 21 20 18 17 17 18 18 18 17 16 15 14 13 13 12 12 12 12 12 14 16 18 19 21 23 25 27 26 24 21 18 20 23 26 24 17 14 13 14 12 10 10 12 14 15 14 10 6 4 3 3 4 6 8 10 13
14 13 12 12 10 8 7 6 7 9 12 15 18 20 19 17 16 15 15 15 15 15 14 13 13 12 12 12 13 13 14 14 16 18 20 21 23 24 25 25 23 22 23 25 26 24 21 16 12 11 11 9 15 19 21 21 20 17 14 11 7 5 4 4 7 8 10 13 16
17 16 14 12 11 9 7 7 8 9 10 13 17 19 19 18 16 15 15 14 14 14 13 12 12 12 13 13 14 16 17 17 18 19 19 20 21 21 21 19 20 23 27 27 20 15 12 12 10 11 13 14 21 24 24 25 18 14 10 7 5 4 5 7 10 12 14 16 18
19 18 16 13 11 10 9 9 9 9 9 12 15 18 19 19 17 16 15 14 14 13 13 12 12 12 13 15 16 17 18 18 17 16 15 15 16 17 17 15 15 18 20 16 13 15 19 19 19 18 18 17 21 22 21 16 11 8 6 4 4 6 8 11 14 17 19 19 19
20 19 16 14 12 11 10 11 10 9 9 10 13 16 18 19 18 17 16 15 14 13 13 12 12 12 13 15 16 17 17 16 13 11 9 8 12 16 18 15 12 13 14 15 20 26 31 31 25 21 17 16 16 14 10 7 5 3 3 4 6 9 12 15 18 19 19 18 16
19 18 17 15 13 12 12 13 12 10 9 9 11 13 15 17 18 17 17 15 14 13 13 13 12 12 13 14 15 15 14 11 7 5 5 6 12 18 22 19 15 14 16 20 24 25 24 22 18 14 11 10 8 5 3 2 2 2 3 6 9 12 15 17 16 14 12 11 12
18 18 17 15 14 14 14 14 13 11 10 8 9 11 13 15 17 18 17 16 15 14 14 13 13 13 13 13 14 13 11 7 4 3 6 11 17 23 25 22 18 18 19 21 19 16 13 11 9 7 5 4 3 2 1 1 2 3 5 8 11 14 16 17 12 7 3 3 5
17 17 17 16 15 14 14 14 14 12 10 8 8 9 11 14 17 18 18 17 17 16 16 16 16 15 15 14 13 12 9 6 4 7 14 24 30 30 25 17 15 16 17 15 11 10 10 8 4 3 2 2 1 1 1 2 4 6 9 12 13 15 16 16 11 4 -2 -8 -11
16 17 17 15 13 13 13 14 14 12 11 9 8 9 11 13 16 17 18 17 17 18 18 19 19 18 18 16 15 12 10 7 7 12 19 28 26 20 12 6 10 12 11 7 5 5 5 4 2 1 1 2 2 2 3 5 8 11 14 17 17 18 17 16 11 5 -2 -9 -13
15 16 15 13 11 11 11 12 12 12 11 10 9 9 10 12 14 16 16 16 16 16 17 18 18 19 19 18 17 15 13 11 12 15 18 19 14 8 6 8 12 11 7 4 5 4 3 2 1 1 2 2 3 4 5 8 12 15 19 21 21 21 21 19 15 9 4 -1 -4
14 14 13 11 9 9 8 9 10 12 13 13 12 11 10 11 12 13 13 12 12 12 12 12 13 14 15 17 17 17 17 16 15 16 15 14 11 11 13 15 13 9 6 5 5 4 3 3 3 4 4 4 4 6 8 11 14 16 16 16 15 15 16 18 16 14 10 7 6
13 13 12 10 8 7 8 9 10 13 15 16 15 13 12 11 11 10 9 9 8 7 6 6 6 8 10 13 16 19 21 21 20 19 17 15 15 15 15 14 10 7 5 5 5 5 5 6 6 6 6 6 7 9 11 13 13 12 8 3 -1 -1 2 8 12 13 13 11 9
12 11 10 9 8 8 9 11 13 15 17 18 17 16 14 12 11 10 8 7 6 5 5 5 6 8 10 12 14 17 20 23 23 22 19 17 15 14 12 9 6 4 3 3 4 5 6 6 7 6 7 7 9 11 12 13 12 8 4 -1 -3 -3 -1 3 8 10 11 10 8
11 10 10 9 9 10 11 13 14 15 16 17 17 16 16 15 13 12 10 9 8 8 8 9 9 10 9 9 10 12 14 17 19 19 17 15 12 9 6 3 2 2 2 3 5 5 6 6 6 6 7 8 8 9 10 11 9 6 3 1 -0 0 2 4 7 9 10 9 7
9 9 9 10 10 11 11 12 12 12 13 13 14 15 15 15 15 14 14 13 13 13 13 13 12 10 8 6 6 7 9 11 12 12 11 9 6 4 2 2 3 4 6 7 8 9 10 11 11 12 12 11 10 10 10 10 9 7 5 5 6 8 11 13 15 15 15 15 14
9 9 9 9 9 9 9 9 9 9 10 10 11 12 13 13 14 14 14 15 14 14 14 13 12 10 8 6 6 6 6 7 7 6 6 5 4 4 4 5 7 9 10 11 12 14 16 20 23 25 24 21 18 17 17 17 16 15 15 16 19 21 24 27 28 28 27 27 25
8 8 8 8 8 8 7 7 7 7 8 8 8 9 9 10 11 11 11 12 11 11 11 11 10 9 9 8 7 6 5 4 3 3 4 4 4 5 5 7 9 10 11 12 15 20 26 33 36 37 35 31 27 25 26 27 29 30 32 32 33 33 33 33 33 33 33 33 31
8 8 7 7 7 7 6 6 5 5 6 6 6 6 6 6 6 7 7 7 7 7 7 7 8 8 8 8 7 6 5 4 3 3 3 4 4 4 5 6 8 9 10 12 14 17 20 22 24 25 26 25 25 26 28 30 32 33 33 31 29 27 26 25 25 26 27 28 28
9 8 8 7 6 6 5 4 4 3 3 3 3 3 2 1 1 1 1 2 2 3 4 5 5 6 6 6 6 7 6 6 6 6 6 6 6 6 7 8 8 9 9 10 11 12 13 14 16 18 20 21 23 24 25 24 23 21 19 16 15 13 13 13 13 13 15 16 18
9 8 8 7 6 5 4 3 3 2 2 2 1 1 -0 -1 -2 -2 -2 -2 -0 1 2 3 3 3 4 4 5 5 6 7 8 8 9 9 10 11 11 11 10 10 11 14 15 16 17 18 20 20 19 18 17 16 14 12 9 7 6 5 5 5 5 5 5 5 6 6 6
8 8 7 6 6 5 5 4 4 3 3 3 2 1 1 0 0 -0 -0 0 2 3 4 4 4 4 4 4 4 5 6 6 7 8 9 11 13 15 16 15 15 16 17 18 17 17 17 17 15 12 10 8 7 6 5 4 3 2 2 2 3 3 3 3 3 3 3 3 3
7 6 6 6 7 7 8 8 8 7 7 6 6 6 6 6 6 7 7 7 8 8 8 8 8 8 7 7 8 8 9 9 10 10 12 14 16 18 19 20 21 20 19 17 16 15 13 10 7 5 4 4 4 3 3 3 4 4 4 3 3 3 3 4 4 4 4 4 4
6 6 7 8 10 12 14 15 15 14 13 13 13 13 14 14 15 16 16 16 16 16 16 15 15 15 15 15 16 17 18 18 18 18 18 19 20 21 22 23 22 19 16 14 13 11 8 5 4 4 4 4 5 5 5 5 4 4 4 4 3 3 3 4 4 4 4 5 5
9 10 12 15 17 20 21 22 22 21 21 20 20 20 21 22 22 23 23 22 23 22 22 22 22 22 23 24 25 27 28 28 27 26 24 23 22 22 22 21 17 14 12 11 9 7 6 5 5 5 5 5 5 5 4 4 4 4 4 4 4 4 4 4 4 4 5 5 6
14 17 19 21 23 24 25 25 25 25 25 24 23 23 23 24 23 23 23 23 23 23 23 23 23 24 25 27 29 30 31 31 29 26 23 21 20 20 18 16 13 11 9 8 7 7 6 6 6 5 5 5 4 4 4 4 4 5 5 6 6 6 6 7 6 6 6 7 7
19 20 21 22 22 21 21 21 21 22 22 21 20 20 20 20 19 19 18 18 18 18 18 19 19 20 21 23 24 25 26 25 23 21 19 17 16 15 13 11 10 9 8 8 7 7 7 6 5 5 5 4 4 4 5 5 6 7 8 9 10 10 10 10 9 9 8 8 8
18 18 17 16 15 14 14 14 15 15 15 15 15 15 15 15 15 15 14 14 14 14 14 14 14 15 15 16 17 17 17 17 16 15 14 13 12 11 10 10 9 8 7 7 6 5 5 5 4 4 4 5 5 5 6 7 8 10 11 12 13 14 14 13 12 11 10 10 10
13 12 11 11 10 10 10 11 11 11 11 12 13 13 13 13 13 13 13 12 12 13 13 13 12 12 12 12 12 11 11 11 11 10 10 10 10 9 9 9 8 7 6 5 4 4 3 3 4 4 5 6 6 7 8 9 10 12 13 15 15 15 15 13 12 11 11 11 11
10 9 9 8 9 9 10 10 10 10 11 12 13 13 13 13 13 13 12 12 11 11 11 10 10 9 9 8 7 7 7 6 6 6 6 6 6 6 6 6 5 5 5 4 4 4 4 4 5 5 6 7 8 8 9 10 11 13 14 16 16 15 13 12 11 11 11 12 12
8 8 8 8 8 8 8 8 9 9 9 9 10 10 11 11 11 10 10 9 8 7 6 5 5 5 4 4 3 3 3 3 3 3 3 3 4 4 4 4 4 4 4 5 5 5 5 6 6 6 7 7 8 9 10 11 12 13 14 15 15 14 12 11 11 11 12 12 13
Height
3012 3010 3007 3004 3002 2999 2997 2995 2993 2991 2989 2987 2984 2982 2980 2977 2974 2972 2970 2968 2966 2964 2962 2960 2958 2957 2955 2953 2952 2950 2949 2948 2946 2945 2945 2944 2943 2943 2942 2942 2941 2940 2940 2940 2940 2940 2940 2940 2941 2941 2941 2942 2943 2944 2945 2946 2948 2949 2951 2953 2955 2958 2960 2962 2964 2966 2968 2969 2970
3012 3009 3006 3003 3001 2999 2997 2994 2992 2990 2988 2986 2984 2981 2979 2976 2973 2971 2969 2968 2966 2964 2962 2960 2958 2957 2955 2954 2952 2951 2949 2947 2946 2945 2944 2943 2943 2942 2941 2941 2940 2940 2939 2939 2939 2939 2939 2940 2940 2940 2940 2941 2942 2943 2945 2946 2948 2949 2951 2953 2956 2958 2960 2963 2964 2966 2968 2969 2970
3011 3008 3006 3003 3000 2998 2996 2994 2992 2990 2988 2986 2983 2981 2978 2976 2973 2971 2969 2967 2965 2963 2962 2960 2958 2957 2955 2954 2953 2951 2949 2948 2946 2944 2943 2943 2942 2942 2941 2940 2940 2939 2938 2938 2938 2939 2939 2939 2939 2939 2939 2940 2942 2943 2944 2946 2948 2949 2951 2953 2956 2958 2961 2963 2965 2966 2968 2969 2970
3010 3008 3005 3003 3000 2998 2996 2994 2992 2990 2988 2985 2983 2981 2978 2976 2973 2971 2969 2967 2965 2964 2962 2961 2959 2958 2956 2954 2953 2952 2950 2948 2947 2945 2944 2943 2942 2941 2941 2940 2939 2939 2938 2938 2938 2939 2938 2938 2938 2938 2939 2940 2942 2943 2944 2946 2947 2949 2951 2953 2957 2959 2961 2963 2965 2966 2968 2969 2970
3010 3007 3005 3002 3000 2998 2996 2993 2992 2989 2987 2985 2983 2980 2978 2976 2973 2971 2969 2967 2966 2964 2963 2962 2960 2958 2956 2955 2954 2953 2951 2949 2948 2947 2945 2944 2943 2942 2941 2940 2939 2939 2939 2939 2938 2938 2938 2938 2938 2939 2939 2940 2942 2943 2945 2946 2948 2949 2951 2955 2958 2960 2962 2963 2965 2966 2968 2968 2969
3009 3007 3004 3002 3000 2998 2996 2994 2992 2989 2987 2984 2982 2980 2978 2976 2973 2971 2969 2968 2966 2965 2963 2962 2961 2959 2957 2955 2954 2953 2952 2950 2949 2948 2947 2945 2944 2943 2941 2940 2940 2939 2939 2938 2938 2938 2938 2938 2938 2939 2940 2941 2942 2944 2946 2948 2949 2950 2953 2956 2958 2960 2962 2963 2965 2966 2967 2968 2968
3009 3007 3004 3002 3000 2998 2996 2994 2992 2989 2987 2985 2983 2980 2978 2976 2974 2972 2970 2968 2967 2966 2964 2963 2961 2959 2958 2956 2955 2953 2952 2951 2949 2948 2947 2946 2945 2943 2942 2941 2940 2940 2939 2938 2938 2938 2938 2938 2939 2939 2940 2942 2943 2945 2947 2949 2949 2951 2954 2956 2959 2961 2962 2963 2964 2965 2966 2967 2968
3009 3007 3005 3003 3000 2998 2996 2994 2992 2989 2987 2985 2983 2981 2978 2976 2974 2973 2971 2969 2968 2966 2965 2963 2962 2960 2958 2957 2955 2954 2953 2951 2950 2949 2948 2947 2945 2944 2943 2942 2941 2940 2940 2940 2939 2939 2939 2939 2939 2940 2942 2944 2945 2947 2948 2949 2950 2952 2954 2957 2959 2961 2962 2962 2963 2964 2965 2967 2968
3009 3007 3005 3003 3000 2998 2996 2994 2992 2990 2988 2986 2983 2981 2979 2977 2975 2973 2971 2970 2968 2967 2966 2964 2963 2961 2959 2958 2956 2955 2953 2952 2951 2950 2949 2947 2946 2945 2944 2943 2943 2942 2941 2941 2940 2940 2940 2940 2940 2942 2944 2946 2947 2948 2949 2951 2953 2954 2955 2958 2959 2960 2961 2962 2963 2964 2966 2967 2968
3009 3007 3005 3003 3001 2999 2997 2995 2993 2991 2989 2987 2984 2982 2980 2978 2976 2974 2972 2971 2969 2968 2967 2965 2963 2962 2961 2959 2958 2956 2954 2953 2952 2951 2950 2948 2948 2947 2946 2944 2943 2943 2942 2942 2942 2942 2942 2942 2943 2944 2946 2947 2948 2950 2952 2954 2956 2956 2957 2958 2959 2961 2962 2963 2964 2965 2967 2968 2968
3009 3008 3005 3003 3002 3000 2998 2996 2994 2992 2990 2988 2985 2983 2981 2978 2977 2975 2973 2972 2970 2969 2968 2966 2965 2963 2962 2960 2959 2957 2956 2954 2953 2952 2951 2950 2949 2948 2947 2946 2945 2944 2944 2943 2943 2943 2943 2944 2946 2947 2948 2949 2951 2953 2955 2956 2956 2957 2958 2959 2962 2963 2964 2965 2966 2967 2968 2968 2969
3010 3008 3006 3004 3002 3000 2999 2997 2995 2993 2991 2989 2987 2984 2982 2980 2978 2976 2975 2973 2972 2970 2969 2968 2966 2965 2963 2962 2960 2958 2957 2956 2955 2953 2953 2952 2951 2949 2948 2948 2947 2946 2946 2946 2946 2946 2947 2947 2948 2949 2950 2952 2954 2956 2957 2956 2957 2958 2960 2962 2963 2964 2965 2966 2967 2968 2968 2969 2969
3011 3009 3007 3005 3003 3001 2999 2998 2996 2994 2992 2990 2988 2985 2983 2981 2979 2978 2976 2974 2973 2971 2970 2969 2968 2966 2965 2963 2962 2960 2959 2958 2957 2955 2954 2954 2953 2952 2951 2950 2949 2949 2949 2949 2949 2949 2949 2950 2951 2952 2953 2955 2956 2957 2957 2958 2959 2960 2962 2963 2965 2966 2966 2967 2968 2968 2969 2969 2969
3011 3009 3008 3006 3004 3002 3000 2999 2997 2995 2993 2991 2989 2987 2985 2983 2981 2979 2977 2976 2974 2973 2971 2970 2969 2968 2966 2965 2963 2962 2961 2960 2959 2958 2957 2956 2955 2954 2953 2952 2952 2952 2952 2952 2951 2951 2952 2953 2954 2955 2955 2956 2957 2958 2959 2960 2961 2962 2964 2965 2966 2967 2967 2968 2968 2969 2969 2969 2970
3012 3010 3008 3007 3005 3003 3001 2999 2998 2996 2994 2993 2990 2988 2986 2984 2983 2981 2979 2977 2976 2974 2973 2971 2970 2969 2968 2966 2965 2964 2963 2962 2961 2960 2959 2958 2957 2956 2956 2955 2955 2955 2954 2954 2954 2954 2955 2956 2956 2956 2957 2958 2958 2960 2961 2962 2963 2964 2965 2966 2967 2968 2968 2969 2969 2969 2969 2970 2970
3013 3011 3009 3007 3006 3004 3002 3000 2999 2997 2995 2994 2992 2990 2988 2986 2984 2982 2980 2979 2977 2976 2974 2973 2971 2970 2969 2968 2968 2967 2965 2964 2963 2962 2961 2960 2959 2959 2958 2958 2958 2957 2957 2957 2958 2958 2958 2958 2958 2958 2959 2960 2961 2962 2963 2964 2965 2966 2967 2968 2968 2969 2969 2969 2970 2970 2970 2971 2971
3014 3012 3010 3008 3007 3005 3003 3001 3000 2998 2997 2995 2993 2992 2990 2988 2986 2984 2983 2981 2979 2978 2976 2974 2973 2973 2972 2971 2969 2968 2968 2967 2966 2965 2964 2963 2963 2962 2961 2961 2961 2961 2961 2961 2960 2960 2961 2961 2961 2962 2963 2963 2964 2965 2966 2966 2967 2968 2968 2969 2969 2970 2970 2970 2971 2971 2972 2972 2973
3015 3013 3011 3009 3008 3006 3004 3003 3001 2999 2998 2996 2995 2993 2991 2990 2988 2986 2984 2983 2981 2979 2978 2977 2976 2974 2973 2972 2971 2971 2970 2969 2968 2968 2967 2967 2966 2965 2965 2964 2964 2964 2963 2963 2963 2964 2964 2965 2965 2965 2966 2966 2967 2967 2968 2968 2969 2969 2970 2970 2970 2970 2971 2971 2972 2972 2973 2973 2973
3016 3014 3012 3010 3008 3007 3005 3004 3002 3001 2999 2998 2997 2995 2993 2992 2990 2988 2987 2985 2983 2982 2980 2979 2978 2977 2975 2974 2974 2973 2973 2972 2971 2970 2969 2969 2968 2968 2967 2967 2966 2966 2966 2966 2966 2967 2968 2967 2968 2968 2968 2968 2969 2969 2970 2970 2971 2971 2971 2971 2971 2971 2971 2972 2972 2973 2973 2974 2973
3017 3015 3013 3012 3010 3008 3007 3005 3003 3002 3001 2999 2998 2997 2995 2994 2992 2991 2989 2988 2986 2984 2983 2982 2980 2979 2978 2978 2977 2976 2976 2975 2973 2973 2972 2971 2970 2969 2969 2969 2969 2969 2969 2969 2969 2969 2970 2970 2970 2970 2970 2971 2971 2971 2972 2972 2972 2972 2972 2972 2972 2972 2972 2973 2973 2974 2974 2974 2974
3018 3016 3014 3013 3011 3009 3008 3007 3005 3004 3003 3001 3000 2999 2997 2996 2994 2993 2991 2990 2989 2988 2986 2985 2983 2982 2981 2980 2980 2979 2978 2977 2976 2975 2974 2973 2973 2972 2972 2972 2972 2971 2971 2971 2972 2972 2972 2972 2972 2972 2972 2972 2973 2973 2973 2973 2973 2973 2973 2973 2973 2973 2973 2974 2974 2975 2975 2975 2975
3019 3018 3016 3014 3013 3011 3010 3008 3007 3006 3004 3003 3002 3001 2999 2998 2996 2995 2994 2993 2992 2990 2989 2988 2987 2985 2984 2983 2982 2982 2981 2980 2979 2978 2977 2976 2976 2975 2974 2974 2973 2973 2973 2973 2973 2973 2973 2974 2974 2974 2974 2974 2974 2974 2974 2974 2974 2974 2974 2974 2974 2974 2974 2975 2975 2975 2976 2976 2976
3020 3019 3017 3016 3014 3013 3011 3010 3008 3007 3006 3005 3003 3002 3001 3000 2998 2997 2996 2995 2994 2993 2992 2990 2989 2988 2987 2986 2985 2984 2983 2982 2981 2980 2979 2978 2978 2977 2976 2976 2975 2975 2975 2975 2975 2975 2975 2975 2975 2975 2975 2975 2975 2975 2975 2975 2975 2975 2975 2975 2975 2975 2976 2976 2976 2976 2976 2976 2976
3022 3020 3019 3018 3016 3015 3013 3012 3010 3009 3008 3007 3005 3004 3003 3002 3000 2999 2998 2997 2996 2995 2994 2993 2992 2991 2990 2989 2988 2987 2986 2985 2983 2983 2982 2981 2980 2979 2979 2978 2978 2978 2978 2977 2977 2977 2977 2977 2977 2977 2977 2976 2976 2976 2976 2976 2976 2976 2976 2975 2976 2976 2976 2977 2977 2976 2976 2976 2976
3023 3022 3021 3019 3018 3017 3015 3014 3013 3011 3009 3008 3007 3006 3005 3003 3003 3002 3001 2999 2998 2997 2996 2995 2994 2993 2992 2991 2990 2989 2988 2987 2986 2985 2984 2983 2983 2982 2982 2982 2981 2981 2980 2980 2980 2979 2979 2979 2978 2978 2978 2978 2978 2977 2977 2977 2977 2977 2976 2976 2976 2976 2976 2976 2976 2976 2976 2976 2976
3025 3024 3023 3021 3020 3019 3018 3016 3014 3013 3012 3010 3009 3008 3007 3006 3005 3004 3003 3002 3001 3000 2999 2998 2997 2995 2994 2993 2992 2991 2990 2989 2988 2988 2987 2986 2986 2985 2985 2984 2984 2983 2983 2982 2982 2981 2981 2980 2979 2979 2978 2978 2978 2978 2978 2977 2977 2977 2977 2977 2977 2977 2977 2977 2977 2977 2977 2977 2977
3026 3025 3024 3023 3022 3021 3019 3018 3017 3015 3014 3013 3011 3010 3009 3008 3007 3006 3005 3004 3003 3002 3001 3000 2999 2998 2997 2996 2994 2993 2992 2991 2991 2990 2989 2988 2988 2988 2987 2986 2985 2984 2984 2983 2983 2982 2982 2981 2980 2979 2979 2979 2978 2978 2978 2978 2978 2978 2978 2978 2978 2978 2977 2977 2977 2977 2977 2976 2976
3028 3027 3026 3024 3023 3022 3021 3020 3018 3017 3016 3015 3013 3012 3011 3010 3009 3008 3008 3007 3006 3005 3004 3003 3001 3000 2999 2998 2997 2996 2995 2994 2993 2992 2991 2991 2990 2989 2988 2987 2986 2986 2985 2984 2984 2983 2982 2982 2981 2980 2980 2980 2980 2980 2979 2979 2979 2979 2978 2978 2978 2978 2978 2978 2977 2977 2977 2977 2977
3029 3028 3027 3026 3025 3024 3023 3022 3020 3019 3018 3017 3015 3014 3013 3013 3012 3011 3010 3009 3008 3007 3006 3005 3003 3003 3002 3000 2999 2998 2997 2996 2995 2994 2993 2993 2992 2991 2990 2989 2988 2988 2987 2987 2986 2985 2984 2983 2983 2982 2982 2981 2981 2981 2980 2980 2980 2979 2979 2979 2979 2979 2979 2979 2978 2978 2978 2978 2978
3030 3029 3029 3028 3027 3026 3024 3023 3022 3021 3020 3018 3018 3017 3016 3015 3014 3013 3012 3011 3010 3008 3008 3007 3006 3004 3003 3002 3001 3000 2999 2998 2997 2996 2996 2995 2994 2993 2992 2991 2991 2990 2989 2989 2988 2987 2986 2985 2985 2984 2984 2983 2983 2983 2983 2982 2982 2981 2981 2981 2981 2981 2981 2981 2980 2980 2980 2980 2980
3032 3031 3030 3029 3028 3027 3026 3025 3023 3022 3021 3020 3019 3018 3018 3017 3016 3014 3013 3013 3011 3010 3009 3008 3008 3006 3005 3004 3003 3002 3001 3000 2999 2998 2998 2997 2996 2995 2994 2993 2993 2992 2991 2991 2990 2989 2988 2988 2987 2987 2987 2986 2986 2986 2985 2985 2984 2984 2983 2983 2983 2983 2983 2983 2982 2982 2982 2982 2982
3033 3033 3032 3031 3030 3028 3028 3026 3025 3024 3023 3022 3021 3020 3019 3018 3017 3016 3015 3014 3013 3012 3011 3010 3009 3008 3007 3006 3005 3004 3003 3003 3002 3001 3000 2999 2998 2997 2996 2995 2995 2994 2993 2993 2992 2991 2991 2990 2990 2989 2989 2989 2989 2988 2988 2988 2987 2987 2986 2986 2985 2985 2984 2984 2984 2984 2983 2983 2983
3035 3034 3033 3032 3031 3030 3029 3028 3027 3026 3024 3023 3023 3022 3020 3019 3018 3017 3016 3015 3014 3014 3013 3012 3011 3010 3009 3008 3007 3006 3005 3004 3003 3003 3002 3001 3000 2999 2998 2998 2997 2996 2995 2995 2994 2994 2993 2993 2993 2992 2992 2992 2991 2991 2990 2990 2989 2989 2988 2988 2988 2987 2987 2986 2986 2985 2985 2985 2985
3036 3036 3035 3033 3033 3031 3030 3029 3028 3027 3026 3025 3024 3023 3022 3020 3019 3018 3018 3017 3016 3015 3014 3013 3013 3012 3011 3009 3008 3008 3006 3005 3004 3004 3003 3002 3002 3001 3000 2999 2998 2998 2997 2997 2996 2996 2996 2995 2995 2995 2995 2994 2994 2993 2993 2992 2992 2991 2991 2990 2989 2989 2988 2988 2988 2987 2987 2986 2986
3038 3037 3036 3035 3034 3033 3032 3030 3029 3028 3028 3026 3025 3024 3023 3022 3021 3020 3019 3018 3018 3017 3016 3015 3014 3013 3012 3011 3010 3009 3008 3007 3006 3006 3005 3004 3004 3003 3002 3001 3001 3000 2999 2999 2999 2998 2998 2998 2998 2997 2997 2996 2996 2995 2995 2994 2993 2993 2992 2992 2991 2990 2990 2989 2989 2988 2988 2988 2988
3039 3038 3037 3036 3035 3034 3033 3032 3031 3030 3029 3028 3027 3026 3025 3023 3023 3022 3021 3020 3020 3019 3018 3017 3016 3015 3014 3013 3012 3011 3010 3009 3008 3008 3007 3007 3006 3006 3005 3004 3003 3002 3002 3001 3001 3001 3000 3000 2999 2999 2999 2998 2998 2997 2996 2996 2995 2994 2994 2993 2993 2992 2991 2991 2990 2990 2989 2989 2989
3041 3040 3039 3038 3037 3036 3035 3034 3033 3032 3031 3030 3029 3028 3027 3026 3025 3024 3023 3023 3022 3021 3021 3020 3019 3018 3017 3016 3015 3014 3013 3012 3011 3011 3010 3009 3009 3008 3007 3006 3006 3005 3004 3004 3003 3003 3002 3002 3001 3001 3000 3000 2999 2998 2998 2997 2997 2996 2995 2995 2994 2993 2993 2992 2992 2991 2991 2991 2990
3043 3042 3041 3040 3039 3038 3037 3037 3035 3034 3033 3032 3031 3030 3029 3028 3027 3027 3026 3025 3025 3024 3023 3022 3021 3020 3019 3018 3018 3017 3016 3015 3014 3014 3013 3012 3011 3011 3010 3009 3008 3007 3007 3006 3006 3005 3004 3004 3003 3003 3002 3002 3001 3000 2999 2999 2998 2997 2997 2996 2995 2994 2994 2993 2993 2993 2992 2992 2992
3045 3044 3043 3043 3042 3041 3040 3039 3038 3037 3036 3035 3034 3033 3032 3031 3030 3029 3029 3028 3028 3027 3026 3025 3024 3023 3022 3021 3020 3020 3019 3018 3018 3017 3016 3015 3014 3013 3013 3012 3011 3010 3009 3008 3008 3007 3006 3006 3005 3004 3004 3003 3002 3002 3001 3000 2999 2999 2998 2997 2997 2996 2995 2995 2994 2994 2994 2993 2993
3047 3047 3046 3045 3044 3043 3042 3041 3040 3039 3038 3038 3037 3036 3035 3034 3033 3032 3032 3031 3030 3029 3028 3027 3026 3025 3024 3024 3023 3023 3022 3021 3020 3019 3018 3017 3016 3016 3015 3014 3013 3012 3011 3010 3010 3009 3008 3008 3007 3006 3005 3005 3004 3003 3002 3002 3001 3000 2999 2999 2998 2997 2997 2996 2996 2996 2995 2995 2994
3049 3049 3048 3047 3046 3046 3045 3044 3043 3042 3041 3041 3040 3039 3038 3037 3036 3035 3034 3033 3033 3032 3031 3030 3029 3028 3027 3027 3026 3025 3024 3023 3022 3021 3020 3020 3019 3018 3017 3016 3015 3014 3013 3012 3011 3011 3010 3009 3008 3008 3007 3006 3005 3005 3004 3003 3003 3002 3001 3000 3000 2999 2998 2998 2998 2997 2997 2996 2996